Retour au catalogue

STARLINK-31422

ActifCommunicationsVLEO
NORAD 59354·PAYLOAD·🇺🇸 United States

Lancé Mar 31, 2024 depuis Cape Canaveral Space Force Station

Loading…

Prochains Passages (prochaines 24 heures)

TLE

FraisSource: CelesTrak SupGP

Époque: Sep 15, 2026, 02:51 UTC

1 59354C 24060G   26258.11923611 -.00009635  00000+0 -34904-3 0  2580
2 59354  43.0021 270.4519 0001295 263.7448 291.1114 15.27577179    18

Suivez STARLINK-31422 en temps réel avec AllMySat

Download on the App Store